owner,sensor,date,latitude,longitude,vertical_datum,wind_speed,wind_to_direction,wind_speed_of_gust,qcFlag 
SCCF RECON,ioos:station:SCCF:53:1,2013-03-01T00:00:00Z,26.6493,-81.8810,2.11,3.5,285.7,-9999.0,'1111122,1111122,1111122' 
SCCF RECON,ioos:station:SCCF:53:1,2013-03-01T00:15:00Z,26.6493,-81.8810,2.11,3.8,291.7,-9999.0,'1111122,1111122,1111122' 
SCCF RECON,ioos:station:SCCF:53:1,2013-03-01T00:30:00Z,26.6493,-81.8810,2.11,3.2,292.0,-9999.0,'1111122,1111122,1111122' 
SCCF RECON,ioos:station:SCCF:53:1,2013-03-01T00:45:00Z,26.6493,-81.8810,2.11,2.3,287.2,-9999.0,'1111122,1111122,1111122' 
SCCF RECON,ioos:station:SCCF:53:1,2013-03-01T01:00:00Z,26.6493,-81.8810,2.11,2.1,320.5,-9999.0,'1111122,1111122,1111122' 
SCCF RECON,ioos:station:SCCF:53:1,2013-03-01T01:15:00Z,26.6493,-81.8810,2.11,2.0,291.1,-9999.0,'1111122,1111122,1111122' 
SCCF RECON,ioos:station:SCCF:53:1,2013-03-01T01:30:00Z,26.6493,-81.8810,2.11,1.7,290.6,-9999.0,'1111122,1111122,1111122' 
SCCF RECON,ioos:station:SCCF:53:1,2013-03-01T01:45:00Z,26.6493,-81.8810,2.11,1.8,297.6,-9999.0,'1111122,1111122,1111122' 
SCCF RECON,ioos:station:SCCF:53:1,2013-03-01T02:00:00Z,26.6493,-81.8810,2.11,1.8,299.3,-9999.0,'1111122,1111122,1111122' 
SCCF RECON,ioos:station:SCCF:53:1,2013-03-01T02:15:00Z,26.6493,-81.8810,2.11,1.4,317.9,-9999.0,'1111122,1111122,1111122' 
SCCF RECON,ioos:station:SCCF:53:1,2013-03-01T02:30:00Z,26.6493,-81.8810,2.11,1.9,308.1,-9999.0,'1111122,1111122,1111122' 
SCCF RECON,ioos:station:SCCF:53:1,2013-03-01T02:45:00Z,26.6493,-81.8810,2.11,0.5,347.6,-9999.0,'1111122,1111122,1111122' 
SCCF RECON,ioos:station:SCCF:53:1,2013-03-01T03:00:00Z,26.6493,-81.8810,2.11,1.7,289.7,-9999.0,'1111122,1111122,1111122' 
SCCF RECON,ioos:station:SCCF:53:1,2013-03-01T03:15:00Z,26.6493,-81.8810,2.11,1.3,312.3,-9999.0,'1111122,1111122,1111122' 
SCCF RECON,ioos:station:SCCF:53:1,2013-03-01T03:30:00Z,26.6493,-81.8810,2.11,1.5,332.2,-9999.0,'1111122,1111122,1111122' 
SCCF RECON,ioos:station:SCCF:53:1,2013-03-01T03:45:00Z,26.6493,-81.8810,2.11,1.3,354.6,-9999.0,'1111122,1111122,1111122' 
SCCF RECON,ioos:station:SCCF:53:1,2013-03-01T04:00:00Z,26.6493,-81.8810,2.11,2.2,321.4,-9999.0,'1111122,1111122,1111122' 
SCCF RECON,ioos:station:SCCF:53:1,2013-03-01T04:15:00Z,26.6493,-81.8810,2.11,2.8,340.2,-9999.0,'1111122,1111122,1111122' 
SCCF RECON,ioos:station:SCCF:53:1,2013-03-01T04:30:00Z,26.6493,-81.8810,2.11,2.6,342.3,-9999.0,'1111122,1111122,1111122' 
SCCF RECON,ioos:station:SCCF:53:1,2013-03-01T04:45:00Z,26.6493,-81.8810,2.11,2.4,328.2,-9999.0,'1111122,1111122,1111122' 
SCCF RECON,ioos:station:SCCF:53:1,2013-03-01T05:00:00Z,26.6493,-81.8810,2.11,3.8,14.0,-9999.0,'1111122,1111122,1111122' 
SCCF RECON,ioos:station:SCCF:53:1,2013-03-01T05:15:00Z,26.6493,-81.8810,2.11,4.3,354.4,-9999.0,'1111122,1111122,1111122' 
SCCF RECON,ioos:station:SCCF:53:1,2013-03-01T05:30:00Z,26.6493,-81.8810,2.11,5.2,0.2,-9999.0,'1111122,1111122,1111122' 
SCCF RECON,ioos:station:SCCF:53:1,2013-03-01T05:45:00Z,26.6493,-81.8810,2.11,4.8,337.0,-9999.0,'1111122,1111122,1111122' 
SCCF RECON,ioos:station:SCCF:53:1,2013-03-01T06:00:00Z,26.6493,-81.8810,2.11,4.3,350.4,-9999.0,'1111122,1111122,1111122' 
SCCF RECON,ioos:station:SCCF:53:1,2013-03-01T06:15:00Z,26.6493,-81.8810,2.11,4.8,343.3,-9999.0,'1111122,1111122,1111122' 
SCCF RECON,ioos:station:SCCF:53:1,2013-03-01T06:30:00Z,26.6493,-81.8810,2.11,4.0,10.5,-9999.0,'1111122,1111122,1111122' 
SCCF RECON,ioos:station:SCCF:53:1,2013-03-01T06:45:00Z,26.6493,-81.8810,2.11,4.4,354.8,-9999.0,'1111122,1111122,1111122' 
SCCF RECON,ioos:station:SCCF:53:1,2013-03-01T07:00:00Z,26.6493,-81.8810,2.11,2.4,3.8,-9999.0,'1111122,1111122,1111122' 
SCCF RECON,ioos:station:SCCF:53:1,2013-03-01T07:15:00Z,26.6493,-81.8810,2.11,2.8,340.8,-9999.0,'1111122,1111122,1111122' 
SCCF RECON,ioos:station:SCCF:53:1,2013-03-01T07:30:00Z,26.6493,-81.8810,2.11,3.6,338.3,-9999.0,'1111122,1111122,1111122' 
SCCF RECON,ioos:station:SCCF:53:1,2013-03-01T07:45:00Z,26.6493,-81.8810,2.11,4.1,346.4,-9999.0,'1111122,1111122,1111122' 
SCCF RECON,ioos:station:SCCF:53:1,2013-03-01T08:00:00Z,26.6493,-81.8810,2.11,4.0,345.4,-9999.0,'1111122,1111122,1111122' 
SCCF RECON,ioos:station:SCCF:53:1,2013-03-01T08:15:00Z,26.6493,-81.8810,2.11,3.8,349.5,-9999.0,'1111122,1111122,1111122' 
SCCF RECON,ioos:station:SCCF:53:1,2013-03-01T08:30:00Z,26.6493,-81.8810,2.11,3.4,0.1,-9999.0,'1111122,1111122,1111122' 
SCCF RECON,ioos:station:SCCF:53:1,2013-03-01T08:45:00Z,26.6493,-81.8810,2.11,4.4,0.5,-9999.0,'1111122,1111122,1111122' 
SCCF RECON,ioos:station:SCCF:53:1,2013-03-01T09:00:00Z,26.6493,-81.8810,2.11,3.5,24.4,-9999.0,'1111122,1111122,1111122' 
SCCF RECON,ioos:station:SCCF:53:1,2013-03-01T09:15:00Z,26.6493,-81.8810,2.11,3.6,0.1,-9999.0,'1111122,1111122,1111122' 
SCCF RECON,ioos:station:SCCF:53:1,2013-03-01T09:30:00Z,26.6493,-81.8810,2.11,2.0,7.3,-9999.0,'1111122,1111122,1111122' 
SCCF RECON,ioos:station:SCCF:53:1,2013-03-01T09:45:00Z,26.6493,-81.8810,2.11,3.3,19.9,-9999.0,'1111122,1111122,1111122' 
SCCF RECON,ioos:station:SCCF:53:1,2013-03-01T10:00:00Z,26.6493,-81.8810,2.11,3.1,27.2,-9999.0,'1111122,1111122,1111122' 
SCCF RECON,ioos:station:SCCF:53:1,2013-03-01T10:15:00Z,26.6493,-81.8810,2.11,3.0,40.9,-9999.0,'1111122,1111122,1111122' 
SCCF RECON,ioos:station:SCCF:53:1,2013-03-01T10:30:00Z,26.6493,-81.8810,2.11,4.1,20.2,-9999.0,'1111122,1111122,1111122' 
SCCF RECON,ioos:station:SCCF:53:1,2013-03-01T10:45:00Z,26.6493,-81.8810,2.11,2.6,56.9,-9999.0,'1111122,1111122,1111122' 
SCCF RECON,ioos:station:SCCF:53:1,2013-03-01T11:00:00Z,26.6493,-81.8810,2.11,3.0,14.6,-9999.0,'1111122,1111122,1111122' 
SCCF RECON,ioos:station:SCCF:53:1,2013-03-01T11:15:00Z,26.6493,-81.8810,2.11,2.7,5.8,-9999.0,'1111122,1111122,1111122' 
SCCF RECON,ioos:station:SCCF:53:1,2013-03-01T11:30:00Z,26.6493,-81.8810,2.11,2.1,28.5,-9999.0,'1111122,1111122,1111122' 
SCCF RECON,ioos:station:SCCF:53:1,2013-03-01T11:45:00Z,26.6493,-81.8810,2.11,2.7,19.8,-9999.0,'1111122,1111122,1111122' 
SCCF RECON,ioos:station:SCCF:53:1,2013-03-01T12:00:00Z,26.6493,-81.8810,2.11,3.4,28.1,-9999.0,'1111122,1111122,1111122' 
SCCF RECON,ioos:station:SCCF:53:1,2013-03-01T12:15:00Z,26.6493,-81.8810,2.11,2.8,24.3,-9999.0,'1111122,1111122,1111122' 
SCCF RECON,ioos:station:SCCF:53:1,2013-03-01T12:30:00Z,26.6493,-81.8810,2.11,3.3,23.0,-9999.0,'1111122,1111122,1111122' 
SCCF RECON,ioos:station:SCCF:53:1,2013-03-01T12:45:00Z,26.6493,-81.8810,2.11,4.6,7.2,-9999.0,'1111122,1111122,1111122' 
SCCF RECON,ioos:station:SCCF:53:1,2013-03-01T13:00:00Z,26.6493,-81.8810,2.11,4.8,3.6,-9999.0,'1111122,1111122,1111122' 
SCCF RECON,ioos:station:SCCF:53:1,2013-03-01T13:15:00Z,26.6493,-81.8810,2.11,4.8,354.9,-9999.0,'1111122,1111122,1111122' 
SCCF RECON,ioos:station:SCCF:53:1,2013-03-01T13:30:00Z,26.6493,-81.8810,2.11,4.0,2.9,-9999.0,'1111122,1111122,1111122' 
SCCF RECON,ioos:station:SCCF:53:1,2013-03-01T13:45:00Z,26.6493,-81.8810,2.11,6.2,0.1,-9999.0,'1111122,1111122,1111122' 
SCCF RECON,ioos:station:SCCF:53:1,2013-03-01T14:00:00Z,26.6493,-81.8810,2.11,6.6,22.6,-9999.0,'1111122,1111122,1111122' 
SCCF RECON,ioos:station:SCCF:53:1,2013-03-01T14:15:00Z,26.6493,-81.8810,2.11,5.4,11.1,-9999.0,'1111122,1111122,1111122' 
SCCF RECON,ioos:station:SCCF:53:1,2013-03-01T14:30:00Z,26.6493,-81.8810,2.11,4.4,39.2,-9999.0,'1111122,1111122,1111122' 
SCCF RECON,ioos:station:SCCF:53:1,2013-03-01T14:45:00Z,26.6493,-81.8810,2.11,3.5,11.6,-9999.0,'1111122,1111122,1111122' 
SCCF RECON,ioos:station:SCCF:53:1,2013-03-01T15:00:00Z,26.6493,-81.8810,2.11,4.5,12.5,-9999.0,'1111122,1111122,1111122' 
SCCF RECON,ioos:station:SCCF:53:1,2013-03-01T15:15:00Z,26.6493,-81.8810,2.11,4.3,5.9,-9999.0,'1111122,1111122,1111122' 
SCCF RECON,ioos:station:SCCF:53:1,2013-03-01T15:30:00Z,26.6493,-81.8810,2.11,2.9,11.1,-9999.0,'1111122,1111122,1111122' 
SCCF RECON,ioos:station:SCCF:53:1,2013-03-01T15:45:00Z,26.6493,-81.8810,2.11,3.3,5.8,-9999.0,'1111122,1111122,1111122' 
SCCF RECON,ioos:station:SCCF:53:1,2013-03-01T16:00:00Z,26.6493,-81.8810,2.11,1.8,57.8,-9999.0,'1111122,1111122,1111122' 
SCCF RECON,ioos:station:SCCF:53:1,2013-03-01T16:15:00Z,26.6493,-81.8810,2.11,3.8,335.7,-9999.0,'1111122,1111122,1111122' 
SCCF RECON,ioos:station:SCCF:53:1,2013-03-01T16:30:00Z,26.6493,-81.8810,2.11,4.5,347.0,-9999.0,'1111122,1111122,1111122' 
SCCF RECON,ioos:station:SCCF:53:1,2013-03-01T16:45:00Z,26.6493,-81.8810,2.11,4.9,5.1,-9999.0,'1111122,1111122,1111122' 
SCCF RECON,ioos:station:SCCF:53:1,2013-03-01T17:00:00Z,26.6493,-81.8810,2.11,5.2,0.1,-9999.0,'1111122,1111122,1111122' 
SCCF RECON,ioos:station:SCCF:53:1,2013-03-01T17:15:00Z,26.6493,-81.8810,2.11,3.5,5.1,-9999.0,'1111122,1111122,1111122' 
SCCF RECON,ioos:station:SCCF:53:1,2013-03-01T17:30:00Z,26.6493,-81.8810,2.11,3.9,1.9,-9999.0,'1111122,1111122,1111122' 
SCCF RECON,ioos:station:SCCF:53:1,2013-03-01T17:45:00Z,26.6493,-81.8810,2.11,3.3,4.6,-9999.0,'1111122,1111122,1111122' 
SCCF RECON,ioos:station:SCCF:53:1,2013-03-01T18:00:00Z,26.6493,-81.8810,2.11,2.3,19.0,-9999.0,'1111122,1111122,1111122' 
SCCF RECON,ioos:station:SCCF:53:1,2013-03-01T18:15:00Z,26.6493,-81.8810,2.11,4.1,348.1,-9999.0,'1111122,1111122,1111122' 
SCCF RECON,ioos:station:SCCF:53:1,2013-03-01T18:30:00Z,26.6493,-81.8810,2.11,2.5,12.0,-9999.0,'1111122,1111122,1111122' 
SCCF RECON,ioos:station:SCCF:53:1,2013-03-01T18:45:00Z,26.6493,-81.8810,2.11,2.1,328.5,-9999.0,'1111122,1111122,1111122' 
SCCF RECON,ioos:station:SCCF:53:1,2013-03-01T19:00:00Z,26.6493,-81.8810,2.11,1.3,354.9,-9999.0,'1111122,1111122,1111122' 
SCCF RECON,ioos:station:SCCF:53:1,2013-03-01T19:15:00Z,26.6493,-81.8810,2.11,1.3,280.8,-9999.0,'1111122,1111122,1111122' 
SCCF RECON,ioos:station:SCCF:53:1,2013-03-01T19:30:00Z,26.6493,-81.8810,2.11,5.1,349.6,-9999.0,'1111122,1111122,1111122' 
SCCF RECON,ioos:station:SCCF:53:1,2013-03-01T19:45:00Z,26.6493,-81.8810,2.11,3.1,282.5,-9999.0,'1111122,1111122,1111122' 
SCCF RECON,ioos:station:SCCF:53:1,2013-03-01T20:00:00Z,26.6493,-81.8810,2.11,1.8,312.0,-9999.0,'1111122,1111122,1111122' 
SCCF RECON,ioos:station:SCCF:53:1,2013-03-01T20:15:00Z,26.6493,-81.8810,2.11,4.0,340.3,-9999.0,'1111122,1111122,1111122' 
SCCF RECON,ioos:station:SCCF:53:1,2013-03-01T20:30:00Z,26.6493,-81.8810,2.11,3.6,331.8,-9999.0,'1111122,1111122,1111122' 
SCCF RECON,ioos:station:SCCF:53:1,2013-03-01T20:45:00Z,26.6493,-81.8810,2.11,4.1,346.2,-9999.0,'1111122,1111122,1111122' 
SCCF RECON,ioos:station:SCCF:53:1,2013-03-01T21:00:00Z,26.6493,-81.8810,2.11,2.5,302.6,-9999.0,'1111122,1111122,1111122' 
SCCF RECON,ioos:station:SCCF:53:1,2013-03-01T21:15:00Z,26.6493,-81.8810,2.11,3.2,318.7,-9999.0,'1111122,1111122,1111122' 
SCCF RECON,ioos:station:SCCF:53:1,2013-03-01T21:30:00Z,26.6493,-81.8810,2.11,4.6,330.1,-9999.0,'1111122,1111122,1111122' 
SCCF RECON,ioos:station:SCCF:53:1,2013-03-01T21:45:00Z,26.6493,-81.8810,2.11,5.9,342.7,-9999.0,'1111122,1111122,1111122' 
SCCF RECON,ioos:station:SCCF:53:1,2013-03-01T22:00:00Z,26.6493,-81.8810,2.11,4.2,342.9,-9999.0,'1111122,1111122,1111122' 
SCCF RECON,ioos:station:SCCF:53:1,2013-03-01T22:15:00Z,26.6493,-81.8810,2.11,5.9,328.1,-9999.0,'1111122,1111122,1111122' 
SCCF RECON,ioos:station:SCCF:53:1,2013-03-01T22:30:00Z,26.6493,-81.8810,2.11,6.0,345.5,-9999.0,'1111122,1111122,1111122' 
SCCF RECON,ioos:station:SCCF:53:1,2013-03-01T22:45:00Z,26.6493,-81.8810,2.11,1.9,313.3,-9999.0,'1111122,1111122,1111122' 
SCCF RECON,ioos:station:SCCF:53:1,2013-03-01T23:00:00Z,26.6493,-81.8810,2.11,2.7,321.8,-9999.0,'1111122,1111122,1111122' 
SCCF RECON,ioos:station:SCCF:53:1,2013-03-01T23:15:00Z,26.6493,-81.8810,2.11,5.5,341.7,-9999.0,'1111122,1111122,1111122' 
SCCF RECON,ioos:station:SCCF:53:1,2013-03-01T23:30:00Z,26.6493,-81.8810,2.11,3.4,330.0,-9999.0,'1111122,1111122,1111122' 
SCCF RECON,ioos:station:SCCF:53:1,2013-03-01T23:45:00Z,26.6493,-81.8810,2.11,3.5,331.0,-9999.0,'1111122,1111122,1111122' 
SCCF RECON,ioos:station:SCCF:53:1,2013-03-02T00:00:00Z,26.6493,-81.8810,2.11,4.0,338.1,-9999.0,'1111122,1111122,1111122' 
SCCF RECON,ioos:station:SCCF:53:1,2013-03-02T00:15:00Z,26.6493,-81.8810,2.11,3.2,334.2,-9999.0,'1111122,1111122,1111122' 
SCCF RECON,ioos:station:SCCF:53:1,2013-03-02T00:30:00Z,26.6493,-81.8810,2.11,5.2,349.1,-9999.0,'1111122,1111122,1111122' 
SCCF RECON,ioos:station:SCCF:53:1,2013-03-02T00:45:00Z,26.6493,-81.8810,2.11,4.3,348.2,-9999.0,'1111122,1111122,1111122' 
SCCF RECON,ioos:station:SCCF:53:1,2013-03-02T01:00:00Z,26.6493,-81.8810,2.11,5.3,351.1,-9999.0,'1111122,1111122,1111122' 
SCCF RECON,ioos:station:SCCF:53:1,2013-03-02T01:15:00Z,26.6493,-81.8810,2.11,3.3,337.0,-9999.0,'1111122,1111122,1111122' 
SCCF RECON,ioos:station:SCCF:53:1,2013-03-02T01:30:00Z,26.6493,-81.8810,2.11,3.4,331.2,-9999.0,'1111122,1111122,1111122' 
SCCF RECON,ioos:station:SCCF:53:1,2013-03-02T01:45:00Z,26.6493,-81.8810,2.11,5.4,350.1,-9999.0,'1111122,1111122,1111122' 
SCCF RECON,ioos:station:SCCF:53:1,2013-03-02T02:00:00Z,26.6493,-81.8810,2.11,5.3,336.3,-9999.0,'1111122,1111122,1111122' 
SCCF RECON,ioos:station:SCCF:53:1,2013-03-02T02:15:00Z,26.6493,-81.8810,2.11,6.2,338.4,-9999.0,'1111122,1111122,1111122' 
SCCF RECON,ioos:station:SCCF:53:1,2013-03-02T02:30:00Z,26.6493,-81.8810,2.11,5.7,335.3,-9999.0,'1111122,1111122,1111122' 
SCCF RECON,ioos:station:SCCF:53:1,2013-03-02T02:45:00Z,26.6493,-81.8810,2.11,6.6,336.7,-9999.0,'1111122,1111122,1111122' 
SCCF RECON,ioos:station:SCCF:53:1,2013-03-02T03:00:00Z,26.6493,-81.8810,2.11,5.6,343.3,-9999.0,'1111122,1111122,1111122' 
SCCF RECON,ioos:station:SCCF:53:1,2013-03-02T03:15:00Z,26.6493,-81.8810,2.11,4.7,337.6,-9999.0,'1111122,1111122,1111122' 
SCCF RECON,ioos:station:SCCF:53:1,2013-03-02T03:30:00Z,26.6493,-81.8810,2.11,6.5,342.0,-9999.0,'1111122,1111122,1111122' 
SCCF RECON,ioos:station:SCCF:53:1,2013-03-02T03:45:00Z,26.6493,-81.8810,2.11,4.5,341.0,-9999.0,'1111122,1111122,1111122' 
SCCF RECON,ioos:station:SCCF:53:1,2013-03-02T04:00:00Z,26.6493,-81.8810,2.11,4.5,337.8,-9999.0,'1111122,1111122,1111122' 
SCCF RECON,ioos:station:SCCF:53:1,2013-03-02T04:15:00Z,26.6493,-81.8810,2.11,4.4,317.4,-9999.0,'1111122,1111122,1111122' 
SCCF RECON,ioos:station:SCCF:53:1,2013-03-02T04:30:00Z,26.6493,-81.8810,2.11,4.8,347.9,-9999.0,'1111122,1111122,1111122' 
SCCF RECON,ioos:station:SCCF:53:1,2013-03-02T04:45:00Z,26.6493,-81.8810,2.11,6.3,339.3,-9999.0,'1111122,1111122,1111122' 
SCCF RECON,ioos:station:SCCF:53:1,2013-03-02T05:00:00Z,26.6493,-81.8810,2.11,4.4,334.0,-9999.0,'1111122,1111122,1111122' 
SCCF RECON,ioos:station:SCCF:53:1,2013-03-02T05:15:00Z,26.6493,-81.8810,2.11,5.0,331.2,-9999.0,'1111122,1111122,1111122' 
SCCF RECON,ioos:station:SCCF:53:1,2013-03-02T05:30:00Z,26.6493,-81.8810,2.11,4.7,329.2,-9999.0,'1111122,1111122,1111122' 
SCCF RECON,ioos:station:SCCF:53:1,2013-03-02T05:45:00Z,26.6493,-81.8810,2.11,5.0,342.4,-9999.0,'1111122,1111122,1111122' 
SCCF RECON,ioos:station:SCCF:53:1,2013-03-02T06:00:00Z,26.6493,-81.8810,2.11,4.4,340.1,-9999.0,'1111122,1111122,1111122' 
SCCF RECON,ioos:station:SCCF:53:1,2013-03-02T06:15:00Z,26.6493,-81.8810,2.11,6.4,0.1,-9999.0,'1111122,1111122,1111122' 
SCCF RECON,ioos:station:SCCF:53:1,2013-03-02T06:30:00Z,26.6493,-81.8810,2.11,6.2,354.9,-9999.0,'1111122,1111122,1111122' 
SCCF RECON,ioos:station:SCCF:53:1,2013-03-02T06:45:00Z,26.6493,-81.8810,2.11,7.4,337.6,-9999.0,'1111122,1111122,1111122' 
SCCF RECON,ioos:station:SCCF:53:1,2013-03-02T07:00:00Z,26.6493,-81.8810,2.11,7.1,350.5,-9999.0,'1111122,1111122,1111122' 
SCCF RECON,ioos:station:SCCF:53:1,2013-03-02T07:15:00Z,26.6493,-81.8810,2.11,6.2,333.4,-9999.0,'1111122,1111122,1111122' 
SCCF RECON,ioos:station:SCCF:53:1,2013-03-02T07:30:00Z,26.6493,-81.8810,2.11,5.8,342.4,-9999.0,'1111122,1111122,1111122' 
SCCF RECON,ioos:station:SCCF:53:1,2013-03-02T07:45:00Z,26.6493,-81.8810,2.11,6.5,351.0,-9999.0,'1111122,1111122,1111122' 
SCCF RECON,ioos:station:SCCF:53:1,2013-03-02T08:00:00Z,26.6493,-81.8810,2.11,4.4,350.0,-9999.0,'1111122,1111122,1111122' 
SCCF RECON,ioos:station:SCCF:53:1,2013-03-02T08:15:00Z,26.6493,-81.8810,2.11,5.4,344.4,-9999.0,'1111122,1111122,1111122' 
SCCF RECON,ioos:station:SCCF:53:1,2013-03-02T08:30:00Z,26.6493,-81.8810,2.11,6.0,345.5,-9999.0,'1111122,1111122,1111122' 
SCCF RECON,ioos:station:SCCF:53:1,2013-03-02T08:45:00Z,26.6493,-81.8810,2.11,5.4,339.2,-9999.0,'1111122,1111122,1111122' 
SCCF RECON,ioos:station:SCCF:53:1,2013-03-02T09:00:00Z,26.6493,-81.8810,2.11,3.5,2.7,-9999.0,'1111122,1111122,1111122' 
SCCF RECON,ioos:station:SCCF:53:1,2013-03-02T09:15:00Z,26.6493,-81.8810,2.11,4.4,354.8,-9999.0,'1111122,1111122,1111122' 
SCCF RECON,ioos:station:SCCF:53:1,2013-03-02T09:30:00Z,26.6493,-81.8810,2.11,3.8,9.0,-9999.0,'1111122,1111122,1111122' 
SCCF RECON,ioos:station:SCCF:53:1,2013-03-02T09:45:00Z,26.6493,-81.8810,2.11,3.3,3.7,-9999.0,'1111122,1111122,1111122' 
SCCF RECON,ioos:station:SCCF:53:1,2013-03-02T10:00:00Z,26.6493,-81.8810,2.11,4.6,13.1,-9999.0,'1111122,1111122,1111122' 
SCCF RECON,ioos:station:SCCF:53:1,2013-03-02T10:15:00Z,26.6493,-81.8810,2.11,5.6,2.9,-9999.0,'1111122,1111122,1111122' 
SCCF RECON,ioos:station:SCCF:53:1,2013-03-02T10:30:00Z,26.6493,-81.8810,2.11,5.3,19.0,-9999.0,'1111122,1111122,1111122' 
SCCF RECON,ioos:station:SCCF:53:1,2013-03-02T10:45:00Z,26.6493,-81.8810,2.11,5.4,19.9,-9999.0,'1111122,1111122,1111122' 
SCCF RECON,ioos:station:SCCF:53:1,2013-03-02T11:00:00Z,26.6493,-81.8810,2.11,5.3,25.0,-9999.0,'1111122,1111122,1111122' 
SCCF RECON,ioos:station:SCCF:53:1,2013-03-02T11:15:00Z,26.6493,-81.8810,2.11,5.0,18.0,-9999.0,'1111122,1111122,1111122' 
SCCF RECON,ioos:station:SCCF:53:1,2013-03-02T11:30:00Z,26.6493,-81.8810,2.11,5.9,43.7,-9999.0,'1111122,1111122,1111122' 
SCCF RECON,ioos:station:SCCF:53:1,2013-03-02T11:45:00Z,26.6493,-81.8810,2.11,4.8,37.8,-9999.0,'1111122,1111122,1111122' 
SCCF RECON,ioos:station:SCCF:53:1,2013-03-02T12:00:00Z,26.6493,-81.8810,2.11,4.8,48.7,-9999.0,'1111122,1111122,1111122' 
SCCF RECON,ioos:station:SCCF:53:1,2013-03-02T12:15:00Z,26.6493,-81.8810,2.11,4.6,33.4,-9999.0,'1111122,1111122,1111122' 
SCCF RECON,ioos:station:SCCF:53:1,2013-03-02T12:30:00Z,26.6493,-81.8810,2.11,6.2,31.1,-9999.0,'1111122,1111122,1111122' 
SCCF RECON,ioos:station:SCCF:53:1,2013-03-02T12:45:00Z,26.6493,-81.8810,2.11,4.4,57.0,-9999.0,'1111122,1111122,1111122' 
SCCF RECON,ioos:station:SCCF:53:1,2013-03-02T13:00:00Z,26.6493,-81.8810,2.11,3.3,100.6,-9999.0,'1111122,1111122,1111122' 
SCCF RECON,ioos:station:SCCF:53:1,2013-03-02T13:15:00Z,26.6493,-81.8810,2.11,2.9,92.0,-9999.0,'1111122,1111122,1111122' 
SCCF RECON,ioos:station:SCCF:53:1,2013-03-02T13:30:00Z,26.6493,-81.8810,2.11,3.4,67.9,-9999.0,'1111122,1111122,1111122' 
SCCF RECON,ioos:station:SCCF:53:1,2013-03-02T13:45:00Z,26.6493,-81.8810,2.11,2.4,60.0,-9999.0,'1111122,1111122,1111122' 
SCCF RECON,ioos:station:SCCF:53:1,2013-03-02T14:00:00Z,26.6493,-81.8810,2.11,3.8,47.5,-9999.0,'1111122,1111122,1111122' 
SCCF RECON,ioos:station:SCCF:53:1,2013-03-02T14:15:00Z,26.6493,-81.8810,2.11,2.5,84.5,-9999.0,'1111122,1111122,1111122' 
SCCF RECON,ioos:station:SCCF:53:1,2013-03-02T14:30:00Z,26.6493,-81.8810,2.11,2.6,73.7,-9999.0,'1111122,1111122,1111122' 
SCCF RECON,ioos:station:SCCF:53:1,2013-03-02T14:45:00Z,26.6493,-81.8810,2.11,2.7,68.6,-9999.0,'1111122,1111122,1111122' 
SCCF RECON,ioos:station:SCCF:53:1,2013-03-02T15:00:00Z,26.6493,-81.8810,2.11,3.4,45.3,-9999.0,'1111122,1111122,1111122' 
SCCF RECON,ioos:station:SCCF:53:1,2013-03-02T15:15:00Z,26.6493,-81.8810,2.11,3.3,33.2,-9999.0,'1111122,1111122,1111122' 
SCCF RECON,ioos:station:SCCF:53:1,2013-03-02T15:30:00Z,26.6493,-81.8810,2.11,2.1,43.1,-9999.0,'1111122,1111122,1111122' 
SCCF RECON,ioos:station:SCCF:53:1,2013-03-02T15:45:00Z,26.6493,-81.8810,2.11,4.5,17.2,-9999.0,'1111122,1111122,1111122' 
SCCF RECON,ioos:station:SCCF:53:1,2013-03-02T16:00:00Z,26.6493,-81.8810,2.11,3.1,27.4,-9999.0,'1111122,1111122,1111122' 
SCCF RECON,ioos:station:SCCF:53:1,2013-03-02T16:15:00Z,26.6493,-81.8810,2.11,4.4,17.1,-9999.0,'1111122,1111122,1111122' 
SCCF RECON,ioos:station:SCCF:53:1,2013-03-02T16:30:00Z,26.6493,-81.8810,2.11,3.2,26.6,-9999.0,'1111122,1111122,1111122' 
SCCF RECON,ioos:station:SCCF:53:1,2013-03-02T16:45:00Z,26.6493,-81.8810,2.11,2.8,38.5,-9999.0,'1111122,1111122,1111122' 
SCCF RECON,ioos:station:SCCF:53:1,2013-03-02T17:00:00Z,26.6493,-81.8810,2.11,4.0,335.1,-9999.0,'1111122,1111122,1111122' 
SCCF RECON,ioos:station:SCCF:53:1,2013-03-02T17:15:00Z,26.6493,-81.8810,2.11,4.5,344.3,-9999.0,'1111122,1111122,1111122' 
SCCF RECON,ioos:station:SCCF:53:1,2013-03-02T17:30:00Z,26.6493,-81.8810,2.11,6.6,328.9,-9999.0,'1111122,1111122,1111122' 
SCCF RECON,ioos:station:SCCF:53:1,2013-03-02T17:45:00Z,26.6493,-81.8810,2.11,6.6,339.9,-9999.0,'1111122,1111122,1111122' 
SCCF RECON,ioos:station:SCCF:53:1,2013-03-02T18:00:00Z,26.6493,-81.8810,2.11,8.3,326.3,-9999.0,'1111122,1111122,1111122' 
SCCF RECON,ioos:station:SCCF:53:1,2013-03-02T18:15:00Z,26.6493,-81.8810,2.11,4.2,283.9,-9999.0,'1111122,1111122,1111122' 
SCCF RECON,ioos:station:SCCF:53:1,2013-03-02T18:30:00Z,26.6493,-81.8810,2.11,6.6,321.8,-9999.0,'1111122,1111122,1111122' 
SCCF RECON,ioos:station:SCCF:53:1,2013-03-02T18:45:00Z,26.6493,-81.8810,2.11,5.9,331.1,-9999.0,'1111122,1111122,1111122' 
SCCF RECON,ioos:station:SCCF:53:1,2013-03-02T19:00:00Z,26.6493,-81.8810,2.11,7.4,334.7,-9999.0,'1111122,1111122,1111122' 
SCCF RECON,ioos:station:SCCF:53:1,2013-03-02T19:15:00Z,26.6493,-81.8810,2.11,6.7,328.8,-9999.0,'1111122,1111122,1111122' 
SCCF RECON,ioos:station:SCCF:53:1,2013-03-02T19:30:00Z,26.6493,-81.8810,2.11,4.9,336.3,-9999.0,'1111122,1111122,1111122' 
SCCF RECON,ioos:station:SCCF:53:1,2013-03-02T19:45:00Z,26.6493,-81.8810,2.11,3.6,316.1,-9999.0,'1111122,1111122,1111122' 
SCCF RECON,ioos:station:SCCF:53:1,2013-03-02T20:00:00Z,26.6493,-81.8810,2.11,4.5,331.2,-9999.0,'1111122,1111122,1111122' 
SCCF RECON,ioos:station:SCCF:53:1,2013-03-02T20:15:00Z,26.6493,-81.8810,2.11,5.4,294.6,-9999.0,'1111122,1111122,1111122' 
SCCF RECON,ioos:station:SCCF:53:1,2013-03-02T20:30:00Z,26.6493,-81.8810,2.11,4.6,286.5,-9999.0,'1111122,1111122,1111122' 
SCCF RECON,ioos:station:SCCF:53:1,2013-03-02T20:45:00Z,26.6493,-81.8810,2.11,4.3,328.8,-9999.0,'1111122,1111122,1111122' 
SCCF RECON,ioos:station:SCCF:53:1,2013-03-02T21:00:00Z,26.6493,-81.8810,2.11,2.5,313.2,-9999.0,'1111122,1111122,1111122' 
SCCF RECON,ioos:station:SCCF:53:1,2013-03-02T21:15:00Z,26.6493,-81.8810,2.11,4.7,316.4,-9999.0,'1111122,1111122,1111122' 
SCCF RECON,ioos:station:SCCF:53:1,2013-03-02T21:30:00Z,26.6493,-81.8810,2.11,5.9,336.2,-9999.0,'1111122,1111122,1111122' 
SCCF RECON,ioos:station:SCCF:53:1,2013-03-02T21:45:00Z,26.6493,-81.8810,2.11,4.5,327.3,-9999.0,'1111122,1111122,1111122' 
SCCF RECON,ioos:station:SCCF:53:1,2013-03-02T22:00:00Z,26.6493,-81.8810,2.11,3.6,322.2,-9999.0,'1111122,1111122,1111122' 
SCCF RECON,ioos:station:SCCF:53:1,2013-03-02T22:15:00Z,26.6493,-81.8810,2.11,4.1,332.7,-9999.0,'1111122,1111122,1111122' 
SCCF RECON,ioos:station:SCCF:53:1,2013-03-02T22:30:00Z,26.6493,-81.8810,2.11,4.6,322.4,-9999.0,'1111122,1111122,1111122' 
SCCF RECON,ioos:station:SCCF:53:1,2013-03-02T22:45:00Z,26.6493,-81.8810,2.11,4.0,323.7,-9999.0,'1111122,1111122,1111122' 
SCCF RECON,ioos:station:SCCF:53:1,2013-03-02T23:00:00Z,26.6493,-81.8810,2.11,4.6,328.1,-9999.0,'1111122,1111122,1111122' 
SCCF RECON,ioos:station:SCCF:53:1,2013-03-02T23:15:00Z,26.6493,-81.8810,2.11,6.2,347.7,-9999.0,'1111122,1111122,1111122' 
SCCF RECON,ioos:station:SCCF:53:1,2013-03-02T23:30:00Z,26.6493,-81.8810,2.11,2.7,318.1,-9999.0,'1111122,1111122,1111122' 
SCCF RECON,ioos:station:SCCF:53:1,2013-03-02T23:45:00Z,26.6493,-81.8810,2.11,5.1,340.7,-9999.0,'1111122,1111122,1111122' 
SCCF RECON,ioos:station:SCCF:53:1,2013-03-03T00:00:00Z,26.6493,-81.8810,2.11,3.8,325.9,-9999.0,'1111122,1111122,1111122' 
SCCF RECON,ioos:station:SCCF:53:1,2013-03-03T00:15:00Z,26.6493,-81.8810,2.11,1.5,313.5,-9999.0,'1111122,1111122,1111122' 
SCCF RECON,ioos:station:SCCF:53:1,2013-03-03T00:30:00Z,26.6493,-81.8810,2.11,1.8,346.4,-9999.0,'1111122,1111122,1111122' 
SCCF RECON,ioos:station:SCCF:53:1,2013-03-03T00:45:00Z,26.6493,-81.8810,2.11,3.1,345.8,-9999.0,'1111122,1111122,1111122' 